User: anonymous   Login
Location: Home
(40.5300°N, 105.0300°W)
Time: 10:01:45
(UTC-06:00)
Language:

STARLINK-2704 - Orbit

View from above orbital plane
View from above orbital plane
View from above satellite
View from above satellite

Ground track
Ground track

The orbit data is extracted from the following two-line orbital elements,

1 48643C 21044F   21265.47447039  .00006449  00000-0  43209-3 0  2650
2 48643  53.0531 235.4383 0001300  52.2947 179.4447 15.06394723    12
Epoch (UTC): 22 September 2021 11:23:14
Eccentricity: 0.0001300
inclination: 53.0531°
perigee height: 546 km
apogee height: 548 km
right ascension of ascending node: 235.4383°
argument of perigee: 52.2947°
revolutions per day: 15.06394723
mean anomaly at epoch: 179.4447°
orbit number at epoch: 1

The dashed part of the orbit path shows where the satellite is in the earth's shadow,  

DLR